Location: Lansingburgh
(42.7845°N, 73.6696°W)
Time: 06:41:14
(UTC+00:00)

ARIANE 6 FM1 Upper Stage - Visible Passes

Search period start: 11 October 2024 00:00
Search period end: 21 October 2024 00:00
Orbit: 563 x 594 km, 62.0° (Epoch: 10 October)

Date Brightness Start Highest point End Pass type
(mag) Time Alt. Az. Time Alt. Az. Time Alt. Az.
12 Oct 5.4 00:45:00 10° N 00:45:34 12° N 00:45:34 12° N visible
13 Oct 5.3 00:48:49 10° N 00:49:41 13° N 00:49:41 13° N visible
14 Oct 5.2 00:52:45 10° NNW 00:53:48 15° N 00:53:48 15° N visible
15 Oct 5.2 00:56:44 10° NNW 00:57:55 17° NNW 00:57:55 17° NNW visible
15 Oct 4.9 23:22:59 10° N 23:24:49 12° NNE 23:25:46 12° NE visible
16 Oct 5.1 01:00:45 10° NNW 01:02:02 19° NNW 01:02:02 19° NNW visible
16 Oct 4.6 23:26:31 10° N 23:29:16 16° NNE 23:29:55 16° NE visible
17 Oct 5.1 01:04:50 10° NW 01:06:11 20° NW 01:06:11 20° NW visible
17 Oct 4.2 23:30:14 10° NNW 23:33:37 22° NE 23:34:05 21° NE visible
18 Oct 5.2 01:08:58 10° NW 01:10:22 20° NW 01:10:22 20° NW visible
18 Oct 3.7 23:34:01 10° NNW 23:37:52 30° NE 23:38:19 29° NE visible
19 Oct 5.3 01:13:12 10° NW 01:14:36 19° WNW 01:14:36 19° WNW visible
19 Oct 3.2 23:37:50 10° NNW 23:42:00 43° NE 23:42:37 40° ENE visible
20 Oct 5.5 01:17:36 10° WNW 01:18:54 16° WNW 01:18:54 16° WNW visible
20 Oct 2.7 23:41:42 10° NNW 23:46:02 66° NE 23:47:00 49° ESE visible
